Flag for Brazil Weather past 2 weeks in Manaus, Amazonas, Brazil

Now
84 °F

Broken clouds.


Feels Like: 92 °F
Forecast: N/A
Wind: 7 mph from Southeast

Location: Manaus Aeroporto


UV Index: N/A

Visibility: N/A


Pressure: 29.80 "Hg

Humidity: 74%

Dew point: 75 °F

Location of ManausLocation

Historic Weather in Manaus

°F

Manaus temperature yesterday

Maximum temperature yesterday: 86 °F (at 1:00 PM)
Minimum temperature yesterday: 75 °F (at 12:00 AM)
Average temperature yesterday: 80 °F

Past Weeks' High & Low Weather Summary

 TemperatureHumidityPressure
High91 °F (Apr 5, 3:00 PM)100% (Apr 9, 5:00 AM)29.98 "Hg (Apr 9, 5:00 AM)
Low73 °F (Apr 9, 9:00 PM)55% (Apr 11, 3:00 PM)29.74 "Hg (Apr 13, 3:00 PM)
Average80 °F83%29.87 "Hg
* Reported Apr 5 3:00 PM — Apr 20 3:00 PM, Manaus, Weather by CustomWeather, © 2014

Note: Actual official high and low records may vary slightly from our data, if they occured in-between our weather recording intervals... More about our weather records

Advertising

Historic Weather Conditions — Data for Previous 24 hours

 ConditionsComfort  
Time TempWeatherWind HumidityBarometerVisibility
3:00 PM
Apr 20
84 °FBroken clouds.7 mph74%29.80 "HgN/A
2:00 PM88 °FPartly sunny.7 mph62%29.83 "HgN/A
1:00 PM88 °FScattered clouds.12 mph62%29.89 "HgN/A
12:00 PM88 °FScattered clouds.6 mph66%29.92 "HgN/A
11:00 AM86 °FScattered clouds.5 mph70%29.95 "HgN/A
10:00 AM86 °FScattered clouds.5 mph70%29.98 "HgN/A
9:00 AM82 °FBroken clouds.5 mph84%29.98 "HgN/A
8:00 AM81 °FScattered clouds.3 mph84%29.95 "HgN/A
7:00 AM79 °FSunny.2 mph89%29.92 "Hg10 mi
6:00 AM75 °FSunny.2 mph94%29.89 "Hg10 mi
5:00 AM75 °FPassing clouds.3 mph94%29.86 "HgN/A
4:00 AM75 °FPassing clouds.3 mph94%29.86 "HgN/A
3:00 AM75 °FPassing clouds.3 mph94%29.86 "HgN/A
2:00 AM77 °FClear.3 mph89%29.89 "Hg10 mi
1:00 AM77 °FClear.3 mph89%29.89 "Hg10 mi
12:00 AM77 °FClear.3 mph89%29.89 "Hg10 mi
11:00 PM
Apr 19
77 °FClear.3 mph89%29.89 "Hg10 mi
10:00 PM77 °FClear.2 mph89%29.89 "Hg10 mi
9:00 PM77 °FThundershowers. Passing clouds.2 mph89%29.89 "HgN/A
8:00 PM77 °FThundershowers. Passing clouds.2 mph94%29.86 "HgN/A
7:00 PM79 °FPassing clouds.2 mph89%29.83 "HgN/A
6:00 PM82 °FScattered showers. Partly cloudy.5 mph79%N/AN/A
5:00 PM86 °FPassing clouds.5 mph70%29.80 "HgN/A
4:00 PM84 °FScattered clouds.No wind70%29.77 "HgN/A
3:00 PM86 °FScattered clouds.3 mph66%29.80 "HgN/A
Weather by CustomWeather, © 2014

See weather overview